Time,TemperatureF,DewpointF,PressureIn,WindDirection,WindDirectionDegrees,WindSpeedMPH,WindSpeedGustMPH,Humidity,HourlyPrecipIn,Conditions,Clouds,dailyrainin,SoftwareType,DateUTC
2017-08-20 00:04:00,65.8,63.0,29.96,SSW,213,0.0,0.0,90,0.00,,,0.00,weatherlink.com 1.10,2017-08-20 04:04:00,
2017-08-20 00:19:00,66.4,64.0,29.96,South,184,0.0,0.0,92,0.00,,,0.00,weatherlink.com 1.10,2017-08-20 04:19:00,
2017-08-20 00:34:00,66.9,64.0,29.96,South,185,0.0,0.0,91,0.00,,,0.00,weatherlink.com 1.10,2017-08-20 04:34:00,
2017-08-20 00:49:00,66.6,65.0,29.96,SSW,209,0.0,0.0,93,0.00,,,0.00,weatherlink.com 1.10,2017-08-20 04:49:00,
2017-08-20 01:04:00,66.5,65.0,29.97,SSW,213,0.0,0.0,93,0.00,,,0.00,weatherlink.com 1.10,2017-08-20 05:04:00,
2017-08-20 01:19:00,66.3,64.0,29.97,SSW,212,0.0,0.0,93,0.00,,,0.00,weatherlink.com 1.10,2017-08-20 05:19:00,
2017-08-20 01:34:00,66.3,65.0,29.97,SW,216,0.0,0.0,94,0.00,,,0.00,weatherlink.com 1.10,2017-08-20 05:34:00,
2017-08-20 01:49:00,66.2,65.0,29.97,SW,227,0.0,0.0,94,0.00,,,0.00,weatherlink.com 1.10,2017-08-20 05:49:00,
2017-08-20 02:04:00,66.2,65.0,29.97,SSW,213,0.0,0.0,94,0.00,,,0.00,weatherlink.com 1.10,2017-08-20 06:04:00,
2017-08-20 02:20:00,66.0,64.0,29.97,SW,222,0.0,0.0,94,0.00,,,0.00,weatherlink.com 1.10,2017-08-20 06:20:00,
2017-08-20 02:34:00,65.9,65.0,29.97,WSW,243,0.0,0.0,95,0.00,,,0.00,weatherlink.com 1.10,2017-08-20 06:34:00,
2017-08-20 02:49:00,65.8,64.0,29.98,SW,229,0.0,0.0,95,0.00,,,0.00,weatherlink.com 1.10,2017-08-20 06:49:00,
2017-08-20 03:05:00,65.6,64.0,29.97,WSW,239,0.0,0.0,95,0.00,,,0.00,weatherlink.com 1.10,2017-08-20 07:05:00,
2017-08-20 03:19:00,65.5,64.0,29.97,SW,234,0.0,0.0,95,0.00,,,0.00,weatherlink.com 1.10,2017-08-20 07:19:00,
2017-08-20 03:34:00,65.4,64.0,29.98,SW,230,0.0,0.0,95,0.00,,,0.00,weatherlink.com 1.10,2017-08-20 07:34:00,
2017-08-20 03:49:00,65.3,64.0,29.98,SW,222,0.0,0.0,95,0.00,,,0.00,weatherlink.com 1.10,2017-08-20 07:49:00,
2017-08-20 04:04:00,65.2,64.0,29.98,SW,223,0.0,0.0,96,0.00,,,0.00,weatherlink.com 1.10,2017-08-20 08:04:00,
2017-08-20 04:19:00,65.0,64.0,29.98,SW,234,0.0,0.0,96,0.00,,,0.00,weatherlink.com 1.10,2017-08-20 08:19:00,
2017-08-20 04:35:00,64.9,64.0,29.98,SW,216,0.0,0.0,96,0.00,,,0.00,weatherlink.com 1.10,2017-08-20 08:35:00,
2017-08-20 04:50:00,64.9,64.0,29.99,WSW,242,0.0,0.0,96,0.00,,,0.00,weatherlink.com 1.10,2017-08-20 08:50:00,